Location: ??????????
(54.8537°N, 38.8755°E)
Time: 23:18:18
(UTC+00:00)

Tiros 1 - Pass Details

Date: 16 September 2024
Orbit: 623 x 654 km, 48.4° (Epoch: 09 October)

Event Time Altitude Azimuth Distance (km) Brightness Sun altitude
Rises 16:58:27 0° 269° (W) 2,910 11.9 -12.1°
Reaches altitude 10° 17:01:01 10° 257° (WSW) 2,006 10.6 -12.4°
Maximum altitude 17:04:54 27° 200° (SSW) 1,207 8.5 -12.9°
Enters shadow 17:07:54 15° 150° (SSE) 1,729 8.9 -13.3°
Drops below altitude 10° 17:08:49 10° 142° (SE) 2,017 - -13.5°
Sets 17:11:24 0° 131° (SE) 2,930 - -13.8°
